Weather History for Fort Bridger AP, Fort Bridger, WY

Change the Weather History Date:

Friday, April 18, 2014

  Actual Average (KEVW) Record (KEVW)
Temperature  
Mean Temperature 53 °F 40 °F  
Max Temperature 66 °F 50 °F 68 °F (2001)
Min Temperature 40 °F 29 °F 15 °F (2013)
Degree Days  
Heating Degree Days 12 25  
Month to date heating degree days 493  
Since 1 July heating degree days 7561  
Cooling Degree Days 0 0  
Month to date cooling degree days 0  
Year to date cooling degree days 0  
Growing Degree Days 3 (Base 50)    
Moisture  
Dew Point 26 °F    
Average Humidity 36    
Maximum Humidity 71    
Minimum Humidity 15    
Precipitation  
Precipitation 0.00 in 0.03 in 0.33 in (2011)
Month to date precipitation 0.65  
Year to date precipitation 2.66  
Sea Level Pressure  
Sea Level Pressure 30.00 in    
Wind  
Wind Speed 12 mph (WSW)    
Max Wind Speed 32 mph    
Max Gust Speed 45 mph    
Visibility 10 miles    
Events      
T = Trace of Precipitation, MM = Missing Value Source: NWS Daily Summary

Daily Weather History Graph

Daily Weather History Graph

Search for Another Location

Airport:

Trip Planner

Search our weather history database for the weather conditions in past years. The results will help you decide how hot, cold, wet, or windy it might be!

Date:

Astronomy

Apr. 18, 2014 Rise Set
Actual Time 6:37 AM MDT 8:05 PM MDT
Civil Twilight 6:08 AM MDT 8:34 PM MDT
Nautical Twilight 5:33 AM MDT 9:09 PM MDT
Astronomical Twilight 4:56 AM MDT 9:46 PM MDT
Moon 11:55 PM MDT (4/18) 9:00 AM MDT (4/18)
Length of Visible Light 14h 25m
Length of Day
13h 28m
Waning Gibbous, 86% of the Moon is Illuminated
Apr 18
Waning Gibbous
Apr 22
Last Quarter
Apr 29
New
May 6
First Quarter
May 14
Full

Hourly Weather History & Observations

Time (MDT) Temp. Windchill Dew Point Humidity Pressure Visibility Wind Dir Wind Speed Gust Speed Precip Events Conditions
12:15 AM 40.8 °F 36.2 °F 24.3 °F 52% 30.01 in 10.0 mi SSE 6.9 mph - N/A   Mostly Cloudy
12:35 AM 44.6 °F 40.7 °F 24.8 °F 46% 30.01 in 10.0 mi South 6.9 mph - N/A   Overcast
12:55 AM 45.3 °F 42.3 °F 24.8 °F 45% 30.01 in 10.0 mi SSE 5.8 mph - N/A   Overcast
1:15 AM 46.2 °F 43.3 °F 24.6 °F 43% 30.01 in 10.0 mi SSE 5.8 mph - N/A   Overcast
1:35 AM 46.8 °F - 24.4 °F 42% 30.00 in 10.0 mi SSE 4.6 mph - N/A   Overcast
1:55 AM 44.4 °F 41.2 °F 24.4 °F 45% 30.00 in 10.0 mi SE 5.8 mph - N/A   Scattered Clouds
2:15 AM 46.0 °F 43.1 °F 24.1 °F 42% 29.99 in 10.0 mi SE 5.8 mph - N/A   Clear
2:35 AM 48.0 °F - 23.2 °F 38% 29.98 in 10.0 mi SSE 4.6 mph - N/A   Clear
2:55 AM 48.2 °F - 23.0 °F 37% 29.98 in 10.0 mi Calm Calm - N/A   Clear
3:15 AM 50.9 °F - 23.0 °F 34% 29.97 in 10.0 mi SW 6.9 mph - N/A   Clear
3:35 AM 50.9 °F - 23.5 °F 34% 29.96 in 10.0 mi WSW 8.1 mph - N/A   Clear
3:55 AM 50.5 °F - 23.9 °F 35% 29.96 in 10.0 mi SW 8.1 mph - N/A   Clear
4:15 AM 47.7 °F - 24.6 °F 41% 29.96 in 10.0 mi West 4.6 mph - N/A   Clear
4:35 AM 48.9 °F - 24.6 °F 39% 29.96 in 10.0 mi SW 9.2 mph - N/A   Clear
4:55 AM 48.2 °F - 24.4 °F 39% 29.96 in 10.0 mi SW 9.2 mph - N/A   Clear
5:15 AM 48.4 °F - 23.7 °F 38% 29.97 in 10.0 mi SSW 9.2 mph - N/A   Clear
5:35 AM 47.5 °F - 23.5 °F 39% 29.96 in 10.0 mi South 10.4 mph - N/A   Clear
5:55 AM 46.6 °F - 23.5 °F 40% 29.96 in 10.0 mi South 6.9 mph - N/A   Clear
6:15 AM 45.1 °F 41.4 °F 23.4 °F 42% 29.95 in 10.0 mi South 6.9 mph - N/A   Clear
6:35 AM 48.9 °F - 23.9 °F 38% 29.95 in 10.0 mi SSW 11.5 mph - N/A   Clear
6:55 AM 48.4 °F - 23.4 °F 37% 29.96 in 10.0 mi WSW 6.9 mph - N/A   Clear
7:15 AM 51.1 °F - 23.0 °F 33% 29.96 in 10.0 mi SW 6.9 mph - N/A   Clear
7:35 AM 46.8 °F - 24.6 °F 42% 29.96 in 10.0 mi SSE 5.8 mph - N/A   Scattered Clouds
7:55 AM 48.0 °F - 24.4 °F 40% 29.96 in 10.0 mi SSE 4.6 mph - N/A   Scattered Clouds
8:15 AM 50.0 °F - 26.6 °F 40% 29.97 in 10.0 mi Calm Calm - N/A   Clear
8:35 AM 56.7 °F - 24.6 °F 29% 29.98 in 10.0 mi West 6.9 mph - N/A   Clear
8:55 AM 56.3 °F - 24.4 °F 29% 29.98 in 10.0 mi WSW 5.8 mph - N/A   Clear
9:15 AM 59.0 °F - 22.5 °F 24% 29.97 in 10.0 mi WSW 17.3 mph 24.2 mph N/A   Clear
9:35 AM 61.9 °F - 18.7 °F 19% 29.98 in 10.0 mi SW 28.8 mph 36.8 mph N/A   Clear
9:55 AM 63.7 °F - 16.7 °F 16% 29.97 in 10.0 mi SW 27.6 mph 36.8 mph N/A   Clear
10:15 AM 64.9 °F - 16.7 °F 16% 29.97 in 10.0 mi WSW 25.3 mph 40.3 mph N/A   Clear
10:35 AM 63.5 °F - 16.5 °F 16% 29.97 in 10.0 mi WSW 25.3 mph 38.0 mph N/A   Clear
10:55 AM 64.8 °F - 16.0 °F 15% 29.98 in 10.0 mi WSW 32.2 mph 44.9 mph N/A   Clear
11:15 AM 65.3 °F - 17.1 °F 16% 29.98 in 10.0 mi West 27.6 mph 39.1 mph N/A   Clear
11:35 AM 63.5 °F - 17.2 °F 17% 29.98 in 10.0 mi WSW 26.5 mph 41.4 mph N/A   Clear
11:55 AM 65.1 °F - 17.8 °F 16% 29.98 in 10.0 mi WSW 31.1 mph 40.3 mph N/A   Clear
12:15 PM 64.9 °F - 17.2 °F 16% 29.98 in 10.0 mi WSW 29.9 mph 43.7 mph N/A   Clear
12:35 PM 64.6 °F - 17.6 °F 16% 29.98 in 10.0 mi West 28.8 mph 40.3 mph N/A   Clear
12:55 PM 63.7 °F - 18.9 °F 18% 29.98 in 10.0 mi West 28.8 mph 36.8 mph N/A   Clear
1:15 PM 66.9 °F - 17.8 °F 15% 29.98 in 10.0 mi West 29.9 mph 43.7 mph N/A   Clear
1:35 PM 66.2 °F - 19.4 °F 17% 29.99 in 10.0 mi West 27.6 mph 36.8 mph N/A   Clear
1:55 PM 65.8 °F - 20.3 °F 18% 30.00 in 10.0 mi WNW 32.2 mph 44.9 mph N/A   Clear
2:15 PM 64.8 °F - 24.4 °F 22% 30.00 in 10.0 mi WNW 26.5 mph 34.5 mph N/A   Clear
2:35 PM 61.0 °F - 25.7 °F 26% 30.00 in 10.0 mi West 21.9 mph 34.5 mph N/A   Clear
2:55 PM 60.8 °F - 26.8 °F 27% 30.00 in 10.0 mi WNW 24.2 mph 32.2 mph N/A   Clear
3:15 PM 61.9 °F - 27.9 °F 28% 30.01 in 10.0 mi WNW 21.9 mph 31.1 mph N/A   Clear
3:40 PM 61.7 °F - 27.7 °F 28% 30.01 in 10.0 mi West 21.9 mph 29.9 mph N/A   Clear
3:55 PM 60.6 °F - 27.5 °F 28% 30.01 in 10.0 mi West 21.9 mph 32.2 mph N/A   Clear
4:15 PM 60.8 °F - 27.7 °F 28% 30.01 in 10.0 mi West 23.0 mph 31.1 mph N/A   Clear
4:35 PM 61.3 °F - 27.0 °F 27% 30.01 in 10.0 mi West 24.2 mph 33.4 mph N/A   Clear
4:55 PM 60.6 °F - 32.2 °F 34% 30.02 in 10.0 mi WNW 27.6 mph 35.7 mph N/A   Scattered Clouds
5:15 PM 58.8 °F - 32.0 °F 36% 30.02 in 10.0 mi West 17.3 mph 31.1 mph N/A   Scattered Clouds
5:35 PM 59.0 °F - 29.5 °F 33% 30.02 in 10.0 mi West 20.7 mph 28.8 mph N/A   Scattered Clouds
5:55 PM 59.5 °F - 28.8 °F 31% 30.02 in 10.0 mi West 20.7 mph 29.9 mph N/A   Clear
6:15 PM 59.5 °F - 27.3 °F 29% 30.02 in 10.0 mi West 21.9 mph 28.8 mph N/A   Scattered Clouds
6:35 PM 59.4 °F - 27.5 °F 30% 30.03 in 10.0 mi West 19.6 mph 27.6 mph N/A   Mostly Cloudy
6:55 PM 58.1 °F - 30.2 °F 35% 30.03 in 10.0 mi West 20.7 mph 26.5 mph N/A   Overcast
7:15 PM 56.5 °F - 30.9 °F 38% 30.03 in 10.0 mi West 18.4 mph 21.9 mph N/A   Mostly Cloudy
7:35 PM 55.0 °F - 30.2 °F 39% 30.02 in 10.0 mi West 17.3 mph 25.3 mph N/A   Scattered Clouds
7:55 PM 54.0 °F - 31.3 °F 42% 30.02 in 10.0 mi West 15.0 mph 23.0 mph N/A   Clear
8:15 PM 52.5 °F - 32.0 °F 46% 30.03 in 10.0 mi WNW 9.2 mph - N/A   Scattered Clouds
8:35 PM 51.8 °F - 32.4 °F 48% 30.04 in 10.0 mi WNW 11.5 mph 16.1 mph N/A   Mostly Cloudy
8:55 PM 50.7 °F - 32.5 °F 50% 30.04 in 10.0 mi WNW 9.2 mph - N/A   Mostly Cloudy
9:15 PM 49.6 °F - 33.3 °F 53% 30.06 in 10.0 mi WNW 8.1 mph - N/A   Scattered Clouds
9:35 PM 48.2 °F - 34.9 °F 60% 30.06 in 10.0 mi NW 9.2 mph - N/A   Clear
9:55 PM 47.3 °F - 35.6 °F 64% 30.08 in 10.0 mi NNW 9.2 mph - N/A   Scattered Clouds
10:15 PM 46.8 °F - 36.0 °F 66% 30.08 in 10.0 mi NW 10.4 mph - N/A   Mostly Cloudy
10:35 PM 46.2 °F 41.2 °F 35.8 °F 67% 30.08 in 10.0 mi NNW 10.4 mph - N/A   Overcast
10:55 PM 45.5 °F 40.8 °F 35.2 °F 67% 30.08 in 10.0 mi NNW 9.2 mph - N/A   Overcast
11:15 PM 44.8 °F 39.4 °F 34.7 °F 68% 30.08 in 10.0 mi NW 10.4 mph - N/A   Mostly Cloudy
11:35 PM 43.5 °F 40.9 °F 33.8 °F 69% 30.08 in 10.0 mi NW 4.6 mph - N/A   Clear
11:55 PM 41.7 °F - 32.9 °F 71% 30.10 in 10.0 mi Calm Calm - N/A   Clear